Change the Weather History Date:

Monday, March 11, 2013

  Actual Average Record
Temperature  
Mean Temperature 54 °F -  
Max Temperature 73 °F 69 °F 90 °F (2006)
Min Temperature 34 °F 47 °F 34 °F (1998)
Degree Days  
Heating Degree Days 12    
Growing Degree Days 4 (Base 50)    
Moisture  
Dew Point 27 °F    
Average Humidity 46    
Maximum Humidity 82    
Minimum Humidity 15    
Precipitation  
Precipitation 0.00 in - - ()
Sea Level Pressure  
Sea Level Pressure 30.12 in    
Wind  
Wind Speed 6 mph (North)    
Max Wind Speed 16 mph    
Max Gust Speed 21 mph    
Visibility 10 miles    
Events      
Averages and records for this station are not official NWS values.
T = Trace of Precipitation, MM = Missing Value Source: NWS Daily Summary

Daily Weather History Graph

Daily Weather History Graph

Search for Another Location

Airport or City:

Trip Planner

Search our weather history database for the weather conditions in past years. The results will help you decide how hot, cold, wet, or windy it might be!

Date:

Astronomy

Mar. 11, 2013 Rise Set
Actual Time 7:50 AM CDT 7:42 PM CDT
Civil Twilight 7:27 AM CDT 8:06 PM CDT
Nautical Twilight 6:59 AM CDT 8:34 PM CDT
Astronomical Twilight 6:31 AM CDT 9:01 PM CDT
Moon 7:27 AM CDT (3/11) 7:51 PM CDT (3/11)
Length of Visible Light 12h 39m
Length of Day
11h 52m
Waning Crescent, 0% of the Moon is Illuminated
Mar 11
Waning Crescent
Mar 11
New
Mar 19
First Quarter
Mar 27
Full
Apr 2
Last Quarter

Hourly Weather History & Observations

Time (CDT) Temp. Windchill Dew Point Humidity Pressure Visibility Wind Dir Wind Speed Gust Speed Precip Events Conditions
12:51 AM 42.1 °F 37.1 °F 32.0 °F 67% 30.15 in 10.0 mi NNW 8.1 mph - N/A   Clear
1:51 AM 42.1 °F 38.4 °F 34.0 °F 73% 30.14 in 10.0 mi NNW 5.8 mph - N/A   Clear
2:51 AM 42.1 °F - 32.0 °F 67% 30.14 in 10.0 mi Calm Calm - N/A   Clear
3:51 AM 37.9 °F 33.5 °F 30.9 °F 76% 30.12 in 10.0 mi North 5.8 mph - N/A   Clear
4:51 AM 36.0 °F 30.3 °F 30.9 °F 82% 30.12 in 10.0 mi North 6.9 mph - N/A   Clear
5:51 AM 35.1 °F 30.1 °F 28.9 °F 78% 30.11 in 10.0 mi NW 5.8 mph - N/A   Clear
6:51 AM 35.1 °F 29.3 °F 28.9 °F 78% 30.14 in 10.0 mi North 6.9 mph - N/A   Clear
7:51 AM 34.0 °F 26.6 °F 27.0 °F 75% 30.17 in 10.0 mi NNE 9.2 mph - N/A   Clear
8:51 AM 39.9 °F 36.7 °F 32.0 °F 73% 30.20 in 10.0 mi NNW 4.6 mph - N/A   Clear
9:51 AM 50.0 °F - 24.1 °F 36% 30.21 in 10.0 mi NNE 10.4 mph - N/A   Clear
10:51 AM 55.0 °F - 21.9 °F 28% 30.21 in 10.0 mi Variable 3.5 mph - N/A   Clear
11:51 AM 60.1 °F - 21.0 °F 22% 30.19 in 10.0 mi NE 5.8 mph - N/A   Clear
12:51 PM 63.0 °F - 21.9 °F 21% 30.17 in 10.0 mi NNE 6.9 mph - N/A   Clear
1:25 PM 66.2 °F - 21.2 °F 18% 30.16 in 10.0 mi WNW 11.5 mph 20.7 mph N/A   Clear
1:51 PM 68.0 °F - 23.0 °F 18% 30.12 in 10.0 mi WNW 16.1 mph 20.7 mph N/A   Clear
2:51 PM 69.1 °F - 24.1 °F 18% 30.07 in 10.0 mi WNW 5.8 mph - N/A   Clear
3:51 PM 71.1 °F - 25.0 °F 18% 30.04 in 10.0 mi Calm Calm - N/A   Clear
4:51 PM 73.0 °F - 21.9 °F 15% 30.01 in 10.0 mi Variable 3.5 mph - N/A   Clear
5:51 PM 73.9 °F - 23.0 °F 15% 30.00 in 10.0 mi North 4.6 mph - N/A   Clear
9:51 PM 57.2 °F - 30.2 °F 36% 30.07 in 10.0 mi SE 4.6 mph - N/A   Clear
10:51 PM 55.0 °F - 28.0 °F 35% 30.06 in 10.0 mi SSE 5.8 mph - N/A   Clear
11:51 PM 46.0 °F - 37.0 °F 71% 30.07 in 10.0 mi Calm Calm - N/A   Clear